Location: McFarlands Corners
(41.4117°N, 81.3382°W)
Time: 21:36:24
(UTC+00:00)

Vanguard 3 - Pass Details

Date: 13 November 2024
Orbit: 507 x 3221 km, 33.4° (Epoch: 03 December)

Event Time Altitude Azimuth Distance (km) Brightness Sun altitude
Rises 22:26:55 0° 273° (W) 5,970 13.0 -4.3°
Reaches altitude 10° 22:31:48 10° 267° (W) 4,503 12.5 -5.2°
Maximum altitude 22:41:55 39° 205° (SSW) 1,920 9.5 -7.0°
Drops below altitude 10° 22:47:58 10° 138° (SE) 2,686 9.6 -8.0°
Sets 22:50:11 0° 130° (SE) 3,380 10.0 -8.4°
